Location: Misciano
(43.5000°N, 11.9500°E)
Time: 05:38:53
(UTC+00:00)

Landsat 7 - Pass Details

Date: 13 August 2020
Orbit: 701 x 703 km, 98.1° (Epoch: 19 September)

Event Time Altitude Azimuth Distance (km) Brightness Sun altitude
Exits shadow 19:48:45 25° 129° (SE) 1,411 4.8 -15.2°
Maximum altitude 19:51:09 45° 71° (ENE) 953 4.2 -15.5°
Drops below altitude 10° 19:55:42 10° 359° (N) 2,180 6.9 -16.2°
Sets 19:58:02 0° 353° (N) 3,102 7.9 -16.5°
